TimeCST,TemperatureF,Dew PointF,Humidity,Sea Level PressureIn,VisibilityMPH,Wind Direction,Wind SpeedMPH,Gust SpeedMPH,PrecipitationIn,Events,Conditions,WindDirDegrees,DateUTC
12:53 AM,27.0,17.1,66,30.01,10.0,West,11.5,-,N/A,,Overcast,280,2013-01-31 06:53:00
1:53 AM,27.0,17.1,66,30.01,10.0,WNW,13.8,24.2,N/A,,Overcast,290,2013-01-31 07:53:00
2:43 AM,24.8,15.8,69,29.98,10.0,WNW,10.4,19.6,N/A,,Scattered Clouds,290,2013-01-31 08:43:00
2:53 AM,25.0,16.0,69,30.02,10.0,West,10.4,-,N/A,,Partly Cloudy,280,2013-01-31 08:53:00
3:53 AM,23.0,16.0,74,30.01,10.0,West,3.5,-,N/A,,Clear,270,2013-01-31 09:53:00
4:53 AM,23.0,17.1,78,30.02,10.0,WSW,6.9,-,N/A,,Clear,250,2013-01-31 10:53:00
5:53 AM,21.9,17.1,82,30.04,10.0,WSW,6.9,-,N/A,,Clear,250,2013-01-31 11:53:00
6:53 AM,21.0,17.1,85,30.04,10.0,SW,9.2,-,N/A,,Clear,220,2013-01-31 12:53:00
7:53 AM,23.0,18.0,81,30.06,10.0,SW,5.8,-,N/A,,Clear,230,2013-01-31 13:53:00
8:53 AM,26.1,19.0,75,30.09,10.0,SW,5.8,-,N/A,,Clear,230,2013-01-31 14:53:00
9:53 AM,32.0,19.9,61,30.11,10.0,WSW,5.8,-,N/A,,Clear,240,2013-01-31 15:53:00
10:53 AM,36.0,19.9,52,30.09,10.0,WSW,6.9,-,N/A,,Clear,240,2013-01-31 16:53:00
11:53 AM,39.0,21.9,50,30.07,10.0,WSW,6.9,-,N/A,,Clear,240,2013-01-31 17:53:00
12:53 PM,42.1,23.0,47,30.06,10.0,NW,11.5,-,N/A,,Scattered Clouds,320,2013-01-31 18:53:00
2:53 PM,39.9,24.1,53,30.11,10.0,NW,20.7,27.6,N/A,,Overcast,310,2013-01-31 20:53:00
3:53 PM,32.0,26.1,79,30.15,2.0,NW,19.6,26.5,0.00,Snow,Light Snow,320,2013-01-31 21:53:00
4:00 PM,30.2,24.8,80,30.13,1.2,NW,20.7,27.6,0.00,Snow,Light Snow,320,2013-01-31 22:00:00
4:09 PM,30.2,24.8,80,30.14,0.8,WNW,12.7,27.6,0.00,Snow,Light Snow,300,2013-01-31 22:09:00
4:26 PM,28.4,24.8,86,30.14,0.5,NW,17.3,21.9,0.00,Fog-Snow,Snow,320,2013-01-31 22:26:00
4:32 PM,28.4,24.8,86,30.15,1.2,NW,13.8,21.9,0.00,Snow,Light Snow,310,2013-01-31 22:32:00
4:53 PM,28.0,24.1,85,30.20,1.0,NW,12.7,19.6,0.00,Snow,Light Snow,320,2013-01-31 22:53:00
5:00 PM,28.4,23.0,80,30.16,1.2,NW,12.7,19.6,0.00,Snow,Light Snow,310,2013-01-31 23:00:00
5:12 PM,28.4,23.0,80,30.17,3.0,WNW,8.1,-,0.00,Snow,Light Snow,300,2013-01-31 23:12:00
5:16 PM,28.4,23.0,80,30.17,2.0,NW,12.7,-,0.00,Snow,Light Snow,310,2013-01-31 23:16:00
5:23 PM,28.4,23.0,80,30.17,1.5,WNW,10.4,-,0.00,Snow,Light Snow,300,2013-01-31 23:23:00
5:34 PM,28.4,23.0,80,30.18,2.5,WNW,8.1,17.3,0.00,Snow,Light Snow,300,2013-01-31 23:34:00
5:42 PM,28.4,21.2,74,30.17,8.0,WNW,9.2,-,0.00,Snow,Light Snow,300,2013-01-31 23:42:00
5:53 PM,28.0,23.0,81,30.23,10.0,WNW,8.1,-,0.00,,Overcast,300,2013-01-31 23:53:00
6:53 PM,26.1,17.1,69,30.27,10.0,NNW,8.1,-,N/A,,Mostly Cloudy,340,2013-02-01 00:53:00
7:13 PM,24.8,12.2,59,30.24,10.0,NNW,15.0,24.2,N/A,,Scattered Clouds,330,2013-02-01 01:13:00
7:53 PM,21.9,10.0,60,30.32,10.0,NW,10.4,20.7,N/A,,Clear,310,2013-02-01 01:53:00
8:53 PM,19.9,8.1,60,30.35,10.0,NW,15.0,21.9,N/A,,Clear,310,2013-02-01 02:53:00
9:53 PM,19.0,6.1,57,30.37,10.0,NW,12.7,20.7,N/A,,Clear,310,2013-02-01 03:53:00
10:53 PM,18.0,6.1,60,30.40,10.0,NW,12.7,20.7,N/A,,Clear,310,2013-02-01 04:53:00
11:53 PM,15.1,5.0,64,30.40,10.0,NNW,13.8,20.7,N/A,,Clear,330,2013-02-01 05:53:00